Location: Erfurt
(50.9688°N, 11.0193°E)
Time: 19:11:28
(UTC+01:00)

ISS - Pass Details

Date: 11 January 2018
Orbit: 402 x 407 km, 51.6° (Epoch: 17 January)

Event Time Altitude Azimuth Distance (km) Brightness Sun altitude
Exits shadow 07:14:13 11° 266° (W) 1,425 -1.6 -9.3°
Maximum altitude 07:16:41 22° 215° (SW) 949 -2.1 -8.9°
Drops below altitude 10° 07:19:17 10° 163° (SSE) 1,462 -0.4 -8.5°
Sets 07:21:39 0° 147° (SSE) 2,320 1.1 -8.2°
